TimeAKDT,TemperatureF,Dew PointF,Humidity,Sea Level PressureIn,VisibilityMPH,Wind Direction,Wind SpeedMPH,Gust SpeedMPH,PrecipitationIn,Events,Conditions,WindDirDegrees,DateUTC
12:16 AM,28.4,21.2,74,30.20,10.0,Calm,Calm,-,N/A,,Overcast,0,2012-10-03 08:16:00
12:36 AM,28.4,23.0,80,30.20,10.0,Calm,Calm,-,N/A,,Overcast,0,2012-10-03 08:36:00
12:56 AM,26.6,21.2,80,30.20,10.0,Calm,Calm,-,N/A,,Overcast,0,2012-10-03 08:56:00
1:16 AM,26.6,21.2,80,30.20,10.0,East,3.5,-,N/A,,Overcast,90,2012-10-03 09:16:00
1:36 AM,26.6,19.4,74,30.20,10.0,NE,3.5,-,N/A,,Overcast,50,2012-10-03 09:36:00
1:56 AM,28.4,21.2,74,30.21,10.0,NE,4.6,-,N/A,,Overcast,40,2012-10-03 09:56:00
2:16 AM,26.6,21.2,80,30.21,10.0,NE,3.5,-,N/A,,Overcast,50,2012-10-03 10:16:00
2:36 AM,26.6,21.2,80,30.20,10.0,NNE,4.6,-,N/A,,Overcast,20,2012-10-03 10:36:00
2:56 AM,26.6,19.4,74,30.21,10.0,North,5.8,-,N/A,,Overcast,10,2012-10-03 10:56:00
3:16 AM,26.6,19.4,74,30.21,10.0,Calm,Calm,-,N/A,,Scattered Clouds,0,2012-10-03 11:16:00
3:36 AM,24.8,19.4,80,30.21,10.0,Calm,Calm,-,N/A,,Clear,0,2012-10-03 11:36:00
3:56 AM,26.6,21.2,80,30.21,10.0,West,4.6,-,N/A,,Clear,280,2012-10-03 11:56:00
4:16 AM,26.6,21.2,80,30.21,10.0,West,3.5,-,N/A,,Clear,270,2012-10-03 12:16:00
4:36 AM,26.6,21.2,80,30.21,10.0,West,3.5,-,N/A,,Clear,270,2012-10-03 12:36:00
4:56 AM,26.6,21.2,80,30.22,10.0,Calm,Calm,-,N/A,,Clear,0,2012-10-03 12:56:00
5:16 AM,26.6,21.2,80,30.22,10.0,Calm,Calm,-,N/A,,Clear,0,2012-10-03 13:16:00
5:36 AM,24.8,21.2,86,30.22,10.0,Calm,Calm,-,N/A,,Clear,0,2012-10-03 13:36:00
5:56 AM,26.6,24.8,93,30.22,10.0,Calm,Calm,-,N/A,,Clear,0,2012-10-03 13:56:00
6:16 AM,26.6,23.0,86,30.22,10.0,Calm,Calm,-,N/A,,Clear,0,2012-10-03 14:16:00
6:36 AM,26.6,24.8,93,30.23,10.0,Calm,Calm,-,N/A,,Clear,0,2012-10-03 14:36:00
6:56 AM,26.6,21.2,80,30.22,10.0,Calm,Calm,-,N/A,,Clear,0,2012-10-03 14:56:00
7:16 AM,26.6,23.0,86,30.22,10.0,Calm,Calm,-,N/A,,Clear,0,2012-10-03 15:16:00
7:36 AM,26.6,21.2,80,30.22,10.0,Calm,Calm,-,N/A,,Clear,0,2012-10-03 15:36:00
7:56 AM,26.6,21.2,80,30.21,9.0,Calm,Calm,-,N/A,,Clear,0,2012-10-03 15:56:00
8:16 AM,26.6,21.2,80,30.21,10.0,Calm,Calm,-,N/A,,Clear,0,2012-10-03 16:16:00
8:36 AM,26.6,21.2,80,30.23,10.0,Calm,Calm,-,N/A,,Clear,0,2012-10-03 16:36:00
8:56 AM,26.6,21.2,80,30.21,10.0,Calm,Calm,-,N/A,,Clear,0,2012-10-03 16:56:00
9:16 AM,28.4,23.0,80,30.23,10.0,Calm,Calm,-,N/A,,Clear,0,2012-10-03 17:16:00
9:36 AM,30.2,24.8,80,30.22,10.0,Calm,Calm,-,N/A,,Clear,0,2012-10-03 17:36:00
9:56 AM,30.2,24.8,80,30.22,10.0,ENE,4.6,-,N/A,,Clear,60,2012-10-03 17:56:00
10:16 AM,30.2,24.8,80,30.22,10.0,ENE,4.6,-,N/A,,Clear,60,2012-10-03 18:16:00
10:36 AM,32.0,24.8,75,30.23,10.0,ENE,4.6,-,N/A,,Clear,60,2012-10-03 18:36:00
10:56 AM,32.0,24.8,75,30.23,10.0,ESE,3.5,-,N/A,,Clear,110,2012-10-03 18:56:00
11:16 AM,33.8,24.8,70,30.23,10.0,ENE,4.6,-,N/A,,Clear,60,2012-10-03 19:16:00
11:36 AM,33.8,24.8,70,30.23,10.0,ENE,5.8,-,N/A,,Clear,60,2012-10-03 19:36:00
11:56 AM,33.8,24.8,70,30.24,10.0,East,4.6,-,N/A,,Clear,100,2012-10-03 19:56:00
12:16 PM,33.8,24.8,70,30.23,10.0,ESE,4.6,-,N/A,,Clear,110,2012-10-03 20:16:00
12:36 PM,33.8,24.8,70,30.22,10.0,East,3.5,-,N/A,,Clear,100,2012-10-03 20:36:00
12:56 PM,33.8,24.8,70,30.22,10.0,East,4.6,-,N/A,,Clear,100,2012-10-03 20:56:00
1:16 PM,35.6,24.8,65,30.22,10.0,ENE,3.5,-,N/A,,Clear,60,2012-10-03 21:16:00
1:36 PM,35.6,24.8,65,30.21,10.0,ESE,3.5,-,N/A,,Clear,120,2012-10-03 21:36:00
1:56 PM,35.6,24.8,65,30.22,10.0,SE,5.8,-,N/A,,Clear,130,2012-10-03 21:56:00
2:16 PM,35.6,24.8,65,30.20,10.0,Calm,Calm,-,N/A,,Clear,0,2012-10-03 22:16:00
2:36 PM,35.6,24.8,65,30.19,10.0,SE,3.5,-,N/A,,Clear,130,2012-10-03 22:36:00
2:56 PM,35.6,24.8,65,30.18,10.0,ESE,4.6,-,N/A,,Clear,120,2012-10-03 22:56:00
3:16 PM,35.6,26.6,70,30.18,10.0,East,5.8,-,N/A,,Clear,90,2012-10-03 23:16:00
3:36 PM,35.6,24.8,65,30.17,10.0,ESE,3.5,-,N/A,,Clear,120,2012-10-03 23:36:00
3:56 PM,35.6,26.6,70,30.16,10.0,SE,4.6,-,N/A,,Clear,130,2012-10-03 23:56:00
4:16 PM,37.4,26.6,65,30.16,10.0,ENE,4.6,-,N/A,,Clear,70,2012-10-04 00:16:00
4:36 PM,37.4,26.6,65,30.16,10.0,ENE,3.5,-,N/A,,Clear,60,2012-10-04 00:36:00
4:56 PM,37.4,26.6,65,30.15,10.0,NE,5.8,-,N/A,,Mostly Cloudy,40,2012-10-04 00:56:00
5:16 PM,35.6,26.6,70,30.16,10.0,Calm,Calm,-,N/A,,Overcast,0,2012-10-04 01:16:00
5:36 PM,35.6,26.6,70,30.16,10.0,Calm,Calm,-,N/A,,Overcast,0,2012-10-04 01:36:00
5:56 PM,35.6,24.8,65,30.15,10.0,Calm,Calm,-,N/A,,Overcast,0,2012-10-04 01:56:00
6:16 PM,35.6,26.6,70,30.14,10.0,Calm,Calm,-,N/A,,Overcast,0,2012-10-04 02:16:00
6:36 PM,35.6,26.6,70,30.14,10.0,Calm,Calm,-,N/A,,Overcast,0,2012-10-04 02:36:00
6:56 PM,35.6,26.6,70,30.13,10.0,Calm,Calm,-,N/A,,Overcast,0,2012-10-04 02:56:00
7:16 PM,33.8,24.8,70,30.13,10.0,Calm,Calm,-,N/A,,Overcast,0,2012-10-04 03:16:00
7:36 PM,33.8,26.6,75,30.13,10.0,Calm,Calm,-,N/A,,Overcast,0,2012-10-04 03:36:00
7:56 PM,33.8,26.6,75,30.12,10.0,NE,6.9,-,N/A,,Overcast,40,2012-10-04 03:56:00
8:16 PM,33.8,28.4,81,30.12,10.0,NE,6.9,-,N/A,,Overcast,40,2012-10-04 04:16:00
8:36 PM,33.8,26.6,75,30.11,10.0,NE,6.9,-,N/A,,Mostly Cloudy,50,2012-10-04 04:36:00
8:56 PM,33.8,28.4,81,30.11,10.0,NE,8.1,-,N/A,,Overcast,40,2012-10-04 04:56:00
9:16 PM,33.8,26.6,75,30.11,10.0,NNE,5.8,-,N/A,,Overcast,30,2012-10-04 05:16:00
9:36 PM,33.8,28.4,81,30.11,10.0,North,6.9,-,N/A,,Mostly Cloudy,360,2012-10-04 05:36:00
9:56 PM,33.8,28.4,81,30.09,10.0,North,6.9,-,N/A,,Partly Cloudy,10,2012-10-04 05:56:00
10:16 PM,33.8,28.4,81,30.09,10.0,North,5.8,-,N/A,,Clear,350,2012-10-04 06:16:00
10:36 PM,33.8,28.4,81,30.08,10.0,NNE,3.5,-,N/A,,Clear,30,2012-10-04 06:36:00
10:56 PM,33.8,28.4,81,30.08,10.0,North,4.6,-,N/A,,Clear,360,2012-10-04 06:56:00
11:16 PM,33.8,28.4,81,30.08,10.0,Calm,Calm,-,N/A,,Mostly Cloudy,0,2012-10-04 07:16:00
11:36 PM,33.8,26.6,75,30.09,10.0,Calm,Calm,-,N/A,,Overcast,0,2012-10-04 07:36:00
11:56 PM,33.8,28.4,81,30.08,10.0,Calm,Calm,-,N/A,,Overcast,0,2012-10-04 07:56:00